GW1374 Weather Reports


Display with metric or nautical units.
time (UTC)temp
F
wind
direction
speed
MPH
gust
MPH
rain 1hr
in
rain 24hr
in
rain mn
in
humidity
%
barometer
mb
20260831131556 62 76 0.0 2.0 0.00 0.00 0.00 96 1021.0
20260831130121 61 178 0.0 2.0 0.00 0.00 0.00 96 1021.1
20260831124552 60 119 1.0 2.0 0.00 0.00 0.00 96 1020.8
20260831123053 60 126 0.0 2.0 0.00 0.00 0.00 96 1020.9
20260831121603 60 0 0.0 2.0 0.00 0.00 0.00 96 1021.1
20260831120054 60 93 1.0 2.0 0.00 0.00 0.00 96 1021.1
20260831114553 60 0 0.0 1.0 0.00 0.00 0.00 96 1021.0
20260831113101 59 0 0.0 1.0 0.00 0.00 0.00 96 1021.0
20260831111552 59 0 0.0 2.0 0.00 0.00 0.00 96 1020.8
20260831110055 59 22 0.0 2.0 0.00 0.00 0.00 95 1020.7
20260831104557 59 93 1.0 2.0 0.00 0.00 0.00 96 1020.4
20260831103054 59 0 0.0 2.0 0.00 0.00 0.00 96 1020.3
20260831101601 59 144 0.0 2.0 0.00 0.00 0.00 96 1020.3
20260831100100 59 0 0.0 1.0 0.00 0.00 0.00 96 1020.4
20260831094553 59 205 0.0 2.0 0.00 0.00 0.00 95 1020.3
20260831093054 59 178 0.0 2.0 0.00 0.00 0.00 96 1020.3
20260831091607 59 178 0.0 2.0 0.00 0.00 0.00 96 1020.5
20260831090053 59 0 0.0 2.0 0.00 0.00 0.00 96 1020.3
20260831084552 59 319 0.0 2.0 0.00 0.00 0.00 95 1020.2
20260831083100 59 0 0.0 2.0 0.00 0.00 0.00 94 1020.0
20260831081554 60 0 0.0 2.0 0.00 0.00 0.00 95 1020.4
20260831080053 60 67 0.0 1.0 0.00 0.00 0.00 95 1020.2
20260831074604 60 0 0.0 1.0 0.00 0.00 0.00 95 1020.2
20260831073110 60 0 0.0 1.0 0.00 0.00 0.00 94 1020.2
20260831071555 60 0 0.0 1.0 0.00 0.00 0.00 94 1020.2
20260831070055 60 0 0.0 1.0 0.00 0.00 0.00 94 1020.2
20260831064600 60 0 0.0 2.0 0.00 0.00 0.00 93 1020.2
20260831063055 61 0 0.0 1.0 0.00 0.00 0.00 93 1020.2
20260831061554 61 0 0.0 2.0 0.00 0.00 0.00 93 1020.4
20260831060107 61 51 0.0 1.0 0.00 0.00 0.00 93 1020.6
20260831054556 61 0 0.0 1.0 0.00 0.00 0.00 93 1020.8
20260831053058 61 265 0.0 3.0 0.00 0.00 0.00 92 1020.9
20260831051601 62 0 0.0 2.0 0.00 0.00 0.00 91 1020.8
20260831050059 62 0 0.0 1.0 0.00 0.00 0.00 91 1020.7
20260831044558 62 0 0.0 1.0 0.00 0.00 0.00 91 1020.9
20260831043051 62 0 0.0 1.0 0.00 0.00 0.00 91 1020.8
20260831041644 63 0 0.0 2.0 0.00 0.00 0.00 91 1020.8
20260831040058 63 0 0.0 1.0 0.00 0.00 0.00 90 1020.6
20260831034553 63 0 0.0 1.0 0.00 0.00 0.00 90 1020.6
20260831033100 63 0 0.0 1.0 0.00 0.00 0.00 89 1020.8
20260831031551 63 0 0.0 1.0 0.00 0.00 0.00 89 1020.8
20260831030100 63 0 0.0 1.0 0.00 0.00 0.00 89 1020.9
20260831024621 63 93 0.0 1.0 0.00 0.00 0.00 89 1021.0
20260831023054 64 0 0.0 1.0 0.00 0.00 0.00 88 1020.9
20260831021554 64 0 0.0 1.0 0.00 0.00 0.00 88 1020.9
20260831014555 64 0 0.0 1.0 0.00 0.00 0.00 88 1020.9
20260831013107 64 0 0.0 1.0 0.00 0.00 0.00 88 1020.8
20260831011556 64 0 0.0 2.0 0.00 0.00 0.00 87 1020.8
20260831010120 64 0 0.0 2.0 0.00 0.00 0.00 87 1020.8
20260831004556 64 0 0.0 2.0 0.00 0.00 0.00 87 1020.4
20260831003051 64 0 0.0 2.0 0.00 0.00 0.00 87 1020.2
20260831001606 64 303 0.0 2.0 0.00 0.00 0.00 86 1019.9
20260831000111 65 9 0.0 2.0 0.00 0.00 0.00 86 1019.8
20260830234554 65 51 0.0 3.0 0.00 0.00 0.00 85 1019.6
20260830233102 65 309 1.0 3.0 0.00 0.00 0.00 84 1019.7
20260830231558 66 44 1.0 4.0 0.00 0.00 0.00 84 1019.7
20260830230057 66 0 0.0 2.0 0.00 0.00 0.00 84 1019.6
20260830224553 66 265 0.0 2.0 0.00 0.00 0.00 83 1019.9
20260830223133 67 0 0.0 2.0 0.00 0.00 0.00 82 1019.6
20260830221557 67 0 0.0 1.0 0.00 0.00 0.00 83 1019.4
20260830220108 67 265 0.0 1.0 0.00 0.00 0.00 82 1019.7
20260830214559 67 0 0.0 2.0 0.00 0.00 0.00 82 1019.3
20260830213059 67 0 0.0 2.0 0.00 0.00 0.00 81 1019.4
20260830211555 68 0 0.0 2.0 0.00 0.00 0.00 81 1019.7
20260830210053 68 0 0.0 2.0 0.00 0.00 0.00 80 1019.7
20260830204556 68 0 0.0 2.0 0.00 0.00 0.00 79 1019.6
20260830203055 67 137 0.0 2.0 0.00 0.00 0.00 81 1019.6
20260830201553 67 9 0.0 3.0 0.00 0.00 0.00 80 1019.6
20260830200050 68 9 0.0 3.0 0.00 0.00 0.00 80 1019.5
20260830194607 68 341 0.0 3.0 0.00 0.00 0.00 77 1019.6
20260830193103 69 26 1.0 7.0 0.00 0.00 0.00 76 1019.6
20260830191552 70 325 1.0 4.0 0.00 0.00 0.00 74 1019.7
20260830190059 72 319 1.0 5.0 0.00 0.00 0.00 73 1019.6
20260830184604 73 51 0.0 3.0 0.00 0.00 0.00 79 1019.5
20260830183123 73 0 0.0 2.0 0.00 0.00 0.00 77 1019.5
20260830181557 73 0 0.0 1.0 0.00 0.00 0.00 74 1019.4
20260830180059 74 0 0.0 2.0 0.00 0.00 0.00 74 1019.5
20260830174555 74 165 0.0 2.0 0.00 0.00 0.00 72 1019.7
20260830173054 73 0 1.0 2.0 0.00 0.00 0.00 72 1019.7
20260830171638 73 0 0.0 4.0 0.00 0.00 0.00 70 1019.9
20260830170056 73 287 0.0 2.0 0.00 0.00 0.00 71 1019.9
20260830164605 73 0 0.0 2.0 0.00 0.00 0.00 71 1020.2
20260830163101 72 93 1.0 4.0 0.00 0.00 0.00 74 1020.1
20260830161555 71 273 1.0 3.0 0.00 0.00 0.00 74 1020.3
20260830160058 71 325 1.0 3.0 0.00 0.00 0.00 72 1020.6
20260830154554 70 265 1.0 3.0 0.00 0.00 0.00 73 1020.5
20260830153101 70 265 0.0 2.0 0.00 0.00 0.00 76 1020.6
20260830151608 68 0 0.0 3.0 0.00 0.00 0.00 76 1020.8
20260830150101 67 76 1.0 3.0 0.00 0.00 0.00 78 1020.7
20260830144603 66 178 0.0 2.0 0.00 0.00 0.00 81 1020.8
20260830143058 65 0 0.0 3.0 0.00 0.00 0.00 81 1020.9
20260830141553 64 178 0.0 5.0 0.00 0.00 0.00 80 1020.5
20260830140101 63 93 1.0 2.0 0.00 0.00 0.00 81 1020.6
20260830134555 63 0 0.0 2.0 0.00 0.00 0.00 82 1020.8
20260830133056 62 188 1.0 3.0 0.00 0.00 0.00 82 1020.8